STARLINK-5895 (55964 NORAD) Tracking and Keplerian Element Data

This shows tracking and keplerian element data for the satellite.

Feedback or suggestion? Click here.




ElementValue
Catalog55964
NameSTARLINK-5895
Epoch Orbit794
Epoch Day126.16580978
Epoch Year2023
RAAN42.1743
Inclination70.0023
Eccentricity0.0003429
Argument of Perigee264.7586
Mean Anonmoly95.3218
Mean Motion15.69929236
Decay Rate3.877E-05
L11 55964U 23037BC 23126.16580978 .00003877 00000+0 33989-4 0 9992
L22 55964 70.0023 42.1743 0003429 264.7586 95.3218 15.69929236 7940



Live tracking and technical data element details for STARLINK-5895 (NORAD 55964). STARLINK-5895 can be tracked NOW for your location showing map with azimuth and elevation plus other details from your city location.







IsCatalogInMostPopularTable: catalog: 55964, numindb: 8
Update: records affected: 1



GetName: 55964 STARLINK-5895

Hit Count: updated at: Tue, 06 Jun 2023 02:50:11 GMT